Time,TemperatureF,DewpointF,PressureIn,WindDirection,WindDirectionDegrees,WindSpeedMPH,WindSpeedGustMPH,Humidity,HourlyPrecipIn,Conditions,Clouds,dailyrainin,SoftwareType,DateUTC
2013-01-27 00:00:00,33.3,28.4,30.40,South,169,0.0,0.0,82,0.00,,SKC,0.00,VWS V14.01,2013-01-27 05:00:00,
2013-01-27 00:01:00,33.2,28.3,30.40,South,169,0.0,0.0,82,0.00,,SKC,0.00,VWS V14.01,2013-01-27 05:01:00,
2013-01-27 00:02:00,33.2,28.3,30.40,South,169,0.0,0.0,82,0.00,,SKC,0.00,VWS V14.01,2013-01-27 05:02:00,
2013-01-27 00:06:00,33.2,28.3,30.40,South,169,0.0,0.0,82,0.00,,SKC,0.00,VWS V14.01,2013-01-27 05:06:00,
2013-01-27 00:12:00,33.3,28.4,30.40,South,169,0.0,0.0,82,0.00,,SKC,0.00,VWS V14.01,2013-01-27 05:12:00,
2013-01-27 00:17:00,33.2,28.3,30.40,South,169,0.0,0.0,82,0.00,,SKC,0.00,VWS V14.01,2013-01-27 05:17:00,
2013-01-27 00:22:00,33.1,28.2,30.40,South,169,0.0,0.0,82,0.00,,SKC,0.00,VWS V14.01,2013-01-27 05:22:00,
2013-01-27 00:29:00,32.9,28.0,30.40,South,169,0.0,0.0,82,0.00,,SKC,0.00,VWS V14.01,2013-01-27 05:29:00,
2013-01-27 00:30:00,32.9,28.0,30.40,South,169,0.0,0.0,82,0.00,,SKC,0.00,VWS V14.01,2013-01-27 05:30:00,
2013-01-27 00:34:00,32.8,28.2,30.40,SSE,165,0.0,0.0,83,0.00,,SKC,0.00,VWS V14.01,2013-01-27 05:34:00,
2013-01-27 00:40:00,32.7,27.8,30.40,SSE,165,0.0,0.0,82,0.00,,SKC,0.00,VWS V14.01,2013-01-27 05:40:00,
2013-01-27 00:46:00,32.8,28.2,30.40,ESE,110,0.0,0.0,83,0.00,,SKC,0.00,VWS V14.01,2013-01-27 05:46:00,
2013-01-27 00:51:00,32.7,27.8,30.40,ESE,110,0.0,0.0,82,0.00,,SKC,0.00,VWS V14.01,2013-01-27 05:51:00,
2013-01-27 00:56:00,32.5,27.9,30.40,ESE,110,0.0,0.0,83,0.00,,SKC,0.00,VWS V14.01,2013-01-27 05:56:00,
2013-01-27 01:00:00,32.5,27.9,30.40,ESE,110,0.0,0.0,83,0.00,,SKC,0.00,VWS V14.01,2013-01-27 06:00:00,
2013-01-27 01:02:00,32.4,27.8,30.40,ESE,110,0.0,0.0,83,0.00,,SKC,0.00,VWS V14.01,2013-01-27 06:02:00,
2013-01-27 01:07:00,32.3,27.7,30.41,ESE,110,0.0,0.0,83,0.00,,SKC,0.00,VWS V14.01,2013-01-27 06:07:00,
2013-01-27 01:13:00,32.1,27.5,30.41,ESE,110,0.0,0.0,83,0.00,,SKC,0.00,VWS V14.01,2013-01-27 06:13:00,
2013-01-27 01:18:00,32.1,27.8,30.41,ESE,110,0.0,0.0,84,0.00,,SKC,0.00,VWS V14.01,2013-01-27 06:18:00,
2013-01-27 01:23:00,32.1,27.8,30.41,ESE,110,0.0,0.0,84,0.00,,SKC,0.00,VWS V14.01,2013-01-27 06:23:00,
2013-01-27 01:29:00,32.1,27.8,30.41,ESE,110,0.0,0.0,84,0.00,,SKC,0.00,VWS V14.01,2013-01-27 06:29:00,
2013-01-27 01:30:00,32.1,27.8,30.42,ESE,110,0.0,0.0,84,0.00,,SKC,0.00,VWS V14.01,2013-01-27 06:30:00,
2013-01-27 01:34:00,32.1,27.8,30.42,ESE,110,0.0,0.0,84,0.00,,SKC,0.00,VWS V14.01,2013-01-27 06:34:00,
2013-01-27 01:40:00,32.3,27.7,30.42,ESE,110,0.0,0.0,83,0.00,,SKC,0.00,VWS V14.01,2013-01-27 06:40:00,
2013-01-27 01:45:00,32.3,27.7,30.42,ESE,110,0.0,0.0,83,0.00,,SKC,0.00,VWS V14.01,2013-01-27 06:45:00,
2013-01-27 01:51:00,32.2,27.6,30.42,ESE,110,0.0,0.0,83,0.00,,SKC,0.00,VWS V14.01,2013-01-27 06:51:00,
2013-01-27 01:56:00,32.2,27.6,30.42,ESE,110,0.0,0.0,83,0.00,,SKC,0.00,VWS V14.01,2013-01-27 06:56:00,
2013-01-27 02:00:00,32.1,27.8,30.43,ESE,110,0.0,0.0,84,0.00,,SKC,0.00,VWS V14.01,2013-01-27 07:00:00,
2013-01-27 02:01:00,32.1,27.8,30.43,ESE,110,0.0,0.0,84,0.00,,SKC,0.00,VWS V14.01,2013-01-27 07:01:00,
2013-01-27 02:07:00,32.1,27.8,30.43,ESE,110,0.0,0.0,84,0.00,,SKC,0.00,VWS V14.01,2013-01-27 07:07:00,
2013-01-27 02:14:00,32.1,27.8,30.43,ESE,104,0.0,0.0,84,0.00,,SKC,0.00,VWS V14.01,2013-01-27 07:14:00,
2013-01-27 02:20:00,32.2,27.9,30.44,ESE,104,0.0,0.0,84,0.00,,SKC,0.00,VWS V14.01,2013-01-27 07:20:00,
2013-01-27 02:25:00,32.1,27.8,30.44,ESE,105,0.0,0.0,84,0.00,,SKC,0.00,VWS V14.01,2013-01-27 07:25:00,
2013-01-27 02:30:00,31.9,27.6,30.44,ESE,104,0.0,0.0,84,0.00,,SKC,0.00,VWS V14.01,2013-01-27 07:30:00,
2013-01-27 02:36:00,31.9,27.6,30.44,ESE,106,0.0,0.0,84,0.00,,SKC,0.00,VWS V14.01,2013-01-27 07:36:00,
2013-01-27 02:41:00,31.7,27.4,30.45,ESE,105,0.0,0.0,84,0.00,,SKC,0.00,VWS V14.01,2013-01-27 07:41:00,
2013-01-27 02:47:00,31.6,27.6,30.45,East,87,0.0,0.0,85,0.00,,SKC,0.00,VWS V14.01,2013-01-27 07:47:00,
2013-01-27 02:52:00,31.4,27.4,30.45,East,88,0.0,0.0,85,0.00,,SKC,0.00,VWS V14.01,2013-01-27 07:52:00,
2013-01-27 02:57:00,31.3,27.3,30.45,East,87,0.0,1.0,85,0.00,,SKC,0.00,VWS V14.01,2013-01-27 07:57:00,
2013-01-27 03:00:00,31.2,27.2,30.46,East,87,0.0,1.0,85,0.00,,SKC,0.00,VWS V14.01,2013-01-27 08:00:00,
2013-01-27 03:03:00,31.1,27.4,30.46,ESE,108,0.0,0.0,86,0.00,,SKC,0.00,VWS V14.01,2013-01-27 08:03:00,
2013-01-27 03:09:00,31.1,27.4,30.46,East,98,0.0,1.0,86,0.00,,SKC,0.00,VWS V14.01,2013-01-27 08:09:00,
2013-01-27 03:14:00,31.0,27.3,30.46,East,98,0.0,1.0,86,0.00,,SKC,0.00,VWS V14.01,2013-01-27 08:14:00,
2013-01-27 03:19:00,30.8,27.1,30.46,East,98,0.0,1.0,86,0.00,,SKC,0.00,VWS V14.01,2013-01-27 08:19:00,
2013-01-27 03:25:00,30.7,27.0,30.47,East,99,0.0,1.0,86,0.00,,SKC,0.00,VWS V14.01,2013-01-27 08:25:00,
2013-01-27 03:30:00,30.5,27.1,30.47,East,98,0.0,0.0,87,0.00,,SKC,0.00,VWS V14.01,2013-01-27 08:30:00,
2013-01-27 03:36:00,30.6,27.2,30.47,ESE,102,0.0,1.0,87,0.00,,SKC,0.00,VWS V14.01,2013-01-27 08:36:00,
2013-01-27 03:41:00,30.4,27.0,30.46,East,98,0.0,1.0,87,0.00,,SKC,0.00,VWS V14.01,2013-01-27 08:41:00,
2013-01-27 03:47:00,30.3,26.9,30.46,East,98,0.0,1.0,87,0.00,,SKC,0.00,VWS V14.01,2013-01-27 08:47:00,
2013-01-27 03:53:00,30.2,27.1,30.46,East,98,0.0,1.0,88,0.00,,SKC,0.00,VWS V14.01,2013-01-27 08:53:00,
2013-01-27 03:58:00,30.1,27.0,30.47,East,98,0.0,1.0,88,0.00,,SKC,0.00,VWS V14.01,2013-01-27 08:58:00,
2013-01-27 04:00:00,30.1,27.0,30.47,East,98,0.0,1.0,88,0.00,,SKC,0.00,VWS V14.01,2013-01-27 09:00:00,
2013-01-27 04:03:00,30.0,26.9,30.47,East,97,0.0,0.0,88,0.00,,SKC,0.00,VWS V14.01,2013-01-27 09:03:00,
2013-01-27 04:09:00,29.8,26.7,30.47,East,96,0.0,0.0,88,0.00,,SKC,0.00,VWS V14.01,2013-01-27 09:09:00,
2013-01-27 04:14:00,29.6,26.5,30.47,East,96,0.0,0.0,88,0.00,,SKC,0.00,VWS V14.01,2013-01-27 09:14:00,
2013-01-27 04:20:00,29.5,26.7,30.47,East,96,0.0,0.0,89,0.00,,SKC,0.00,VWS V14.01,2013-01-27 09:20:00,
2013-01-27 04:25:00,29.5,26.7,30.47,East,94,0.0,0.0,89,0.00,,SKC,0.00,VWS V14.01,2013-01-27 09:25:00,
2013-01-27 04:30:00,29.5,26.7,30.47,East,90,0.0,0.0,89,0.00,,SKC,0.00,VWS V14.01,2013-01-27 09:30:00,
2013-01-27 04:31:00,29.5,26.7,30.48,East,91,0.0,0.0,89,0.00,,SKC,0.00,VWS V14.01,2013-01-27 09:31:00,
2013-01-27 04:36:00,29.4,26.6,30.48,East,91,0.0,0.0,89,0.00,,SKC,0.00,VWS V14.01,2013-01-27 09:36:00,
2013-01-27 04:41:00,29.3,26.5,30.48,East,91,0.0,0.0,89,0.00,,SKC,0.00,VWS V14.01,2013-01-27 09:41:00,
2013-01-27 04:47:00,29.3,26.5,30.48,East,87,0.0,1.0,89,0.00,,SKC,0.00,VWS V14.01,2013-01-27 09:47:00,
2013-01-27 04:52:00,29.4,26.6,30.49,East,89,0.0,1.0,89,0.00,,SKC,0.00,VWS V14.01,2013-01-27 09:52:00,
2013-01-27 04:58:00,29.3,26.5,30.49,East,93,0.0,1.0,89,0.00,,SKC,0.00,VWS V14.01,2013-01-27 09:58:00,
2013-01-27 05:00:00,29.3,26.5,30.49,East,81,0.0,1.0,89,0.00,,SKC,0.00,VWS V14.01,2013-01-27 10:00:00,
2013-01-27 05:03:00,29.2,26.4,30.49,East,81,0.0,0.0,89,0.00,,SKC,0.00,VWS V14.01,2013-01-27 10:03:00,
2013-01-27 05:09:00,29.2,26.4,30.49,East,80,0.0,0.0,89,0.00,,SKC,0.00,VWS V14.01,2013-01-27 10:09:00,
2013-01-27 05:14:00,29.1,26.3,30.49,East,80,0.0,0.0,89,0.00,,SKC,0.00,VWS V14.01,2013-01-27 10:14:00,
2013-01-27 05:19:00,28.9,26.1,30.49,East,84,0.0,0.0,89,0.00,,SKC,0.00,VWS V14.01,2013-01-27 10:19:00,
2013-01-27 05:25:00,28.8,26.0,30.49,East,84,0.0,0.0,89,0.00,,SKC,0.00,VWS V14.01,2013-01-27 10:25:00,
2013-01-27 05:30:00,28.6,25.8,30.49,East,89,0.0,1.0,89,0.00,,SKC,0.00,VWS V14.01,2013-01-27 10:30:00,
2013-01-27 05:36:00,28.6,25.8,30.49,East,93,0.0,1.0,89,0.00,,SKC,0.00,VWS V14.01,2013-01-27 10:36:00,
2013-01-27 05:41:00,28.5,25.7,30.49,East,93,0.0,1.0,89,0.00,,SKC,0.00,VWS V14.01,2013-01-27 10:41:00,
2013-01-27 05:46:00,28.5,25.7,30.49,East,93,0.0,1.0,89,0.00,,SKC,0.00,VWS V14.01,2013-01-27 10:46:00,
2013-01-27 05:52:00,28.4,25.6,30.50,East,94,0.0,1.0,89,0.00,,SKC,0.00,VWS V14.01,2013-01-27 10:52:00,
2013-01-27 05:58:00,28.4,25.6,30.50,ESE,105,0.0,1.0,89,0.00,,SKC,0.00,VWS V14.01,2013-01-27 10:58:00,
2013-01-27 06:00:00,28.4,25.6,30.50,ESE,105,0.0,1.0,89,0.00,,SKC,0.00,VWS V14.01,2013-01-27 11:00:00,
2013-01-27 06:03:00,28.3,25.5,30.50,ESE,106,0.0,0.0,89,0.00,,SKC,0.00,VWS V14.01,2013-01-27 11:03:00,
2013-01-27 06:09:00,28.2,25.4,30.51,East,86,0.0,1.0,89,0.00,,SKC,0.00,VWS V14.01,2013-01-27 11:09:00,
2013-01-27 06:14:00,28.1,25.3,30.51,East,86,0.0,1.0,89,0.00,,SKC,0.00,VWS V14.01,2013-01-27 11:14:00,
2013-01-27 06:19:00,28.1,25.3,30.51,East,85,0.0,1.0,89,0.00,,SKC,0.00,VWS V14.01,2013-01-27 11:19:00,
2013-01-27 06:25:00,28.1,25.3,30.51,East,80,0.0,1.0,89,0.00,,SKC,0.00,VWS V14.01,2013-01-27 11:25:00,
2013-01-27 06:30:00,28.0,25.2,30.52,East,92,0.0,0.0,89,0.00,,SKC,0.00,VWS V14.01,2013-01-27 11:30:00,
2013-01-27 06:36:00,27.9,25.1,30.52,East,92,0.0,0.0,89,0.00,,SKC,0.00,VWS V14.01,2013-01-27 11:36:00,
2013-01-27 06:41:00,27.8,25.0,30.52,East,92,0.0,0.0,89,0.00,,SKC,0.00,VWS V14.01,2013-01-27 11:41:00,
2013-01-27 06:47:00,27.7,24.9,30.53,East,93,0.0,0.0,89,0.00,,SKC,0.00,VWS V14.01,2013-01-27 11:47:00,
2013-01-27 06:52:00,27.7,24.9,30.53,East,97,0.0,0.0,89,0.00,,SKC,0.00,VWS V14.01,2013-01-27 11:52:00,
2013-01-27 06:57:00,27.6,24.8,30.53,East,98,0.0,0.0,89,0.00,,SKC,0.00,VWS V14.01,2013-01-27 11:57:00,
2013-01-27 07:00:00,27.6,24.8,30.53,East,98,0.0,0.0,89,0.00,,SKC,0.00,VWS V14.01,2013-01-27 12:00:00,
2013-01-27 07:03:00,27.5,24.7,30.54,East,98,0.0,1.0,89,0.00,,SKC,0.00,VWS V14.01,2013-01-27 12:03:00,
2013-01-27 07:08:00,27.4,24.6,30.54,East,98,0.0,1.0,89,0.00,,SKC,0.00,VWS V14.01,2013-01-27 12:08:00,
2013-01-27 07:14:00,27.3,24.5,30.54,ESE,115,0.0,1.0,89,0.00,,SKC,0.00,VWS V14.01,2013-01-27 12:14:00,
2013-01-27 07:19:00,27.3,24.5,30.54,ESE,116,0.0,1.0,89,0.00,,SKC,0.00,VWS V14.01,2013-01-27 12:19:00,
2013-01-27 07:25:00,27.3,24.5,30.55,ESE,114,0.0,1.0,89,0.00,,SKC,0.00,VWS V14.01,2013-01-27 12:25:00,
2013-01-27 07:30:00,27.3,24.5,30.55,ESE,114,0.0,0.0,89,0.00,,SKC,0.00,VWS V14.01,2013-01-27 12:30:00,
2013-01-27 07:36:00,27.3,24.5,30.55,ESE,110,0.0,0.0,89,0.00,,SKC,0.00,VWS V14.01,2013-01-27 12:36:00,
2013-01-27 07:41:00,27.4,24.6,30.55,ESE,105,0.0,0.0,89,0.00,,SKC,0.00,VWS V14.01,2013-01-27 12:41:00,
2013-01-27 07:47:00,27.4,24.6,30.56,ESE,106,0.0,0.0,89,0.00,,SKC,0.00,VWS V14.01,2013-01-27 12:47:00,
2013-01-27 07:52:00,27.6,24.8,30.56,ESE,103,0.0,1.0,89,0.00,,SKC,0.00,VWS V14.01,2013-01-27 12:52:00,
2013-01-27 07:57:00,27.7,24.6,30.56,East,100,0.0,1.0,88,0.00,,SKC,0.00,VWS V14.01,2013-01-27 12:57:00,
2013-01-27 08:00:00,27.7,24.6,30.56,East,101,0.0,1.0,88,0.00,,SKC,0.00,VWS V14.01,2013-01-27 13:00:00,
2013-01-27 08:03:00,27.7,24.6,30.57,East,101,0.0,0.0,88,0.00,,SKC,0.00,VWS V14.01,2013-01-27 13:03:00,
2013-01-27 08:08:00,27.8,24.7,30.57,ENE,75,0.0,1.0,88,0.00,,SKC,0.00,VWS V14.01,2013-01-27 13:08:00,
2013-01-27 08:14:00,28.0,24.9,30.57,East,98,0.0,1.0,88,0.00,,SKC,0.00,VWS V14.01,2013-01-27 13:14:00,
2013-01-27 08:19:00,28.2,24.8,30.57,East,86,0.0,1.0,87,0.00,,SKC,0.00,VWS V14.01,2013-01-27 13:19:00,
2013-01-27 08:25:00,28.4,25.0,30.57,ESE,112,0.0,1.0,87,0.00,,SKC,0.00,VWS V14.01,2013-01-27 13:25:00,
2013-01-27 08:30:00,28.6,25.2,30.58,ESE,106,0.0,0.0,87,0.00,,SKC,0.00,VWS V14.01,2013-01-27 13:30:00,
2013-01-27 08:35:00,28.9,25.2,30.58,East,96,0.0,1.0,86,0.00,,SKC,0.00,VWS V14.01,2013-01-27 13:35:00,
2013-01-27 08:41:00,29.2,25.5,30.58,East,94,0.0,1.0,86,0.00,,SKC,0.00,VWS V14.01,2013-01-27 13:41:00,
2013-01-27 08:46:00,29.5,25.6,30.58,East,87,0.0,1.0,85,0.00,,SKC,0.00,VWS V14.01,2013-01-27 13:46:00,
2013-01-27 08:52:00,29.9,25.7,30.58,ESE,103,0.0,2.0,84,0.00,,SKC,0.00,VWS V14.01,2013-01-27 13:52:00,
2013-01-27 08:57:00,30.1,25.9,30.58,East,85,2.0,6.0,84,0.00,,SKC,0.00,VWS V14.01,2013-01-27 13:57:00,
2013-01-27 09:00:00,30.2,25.7,30.58,East,99,0.0,6.0,83,0.00,,SKC,0.00,VWS V14.01,2013-01-27 14:00:00,
2013-01-27 09:02:00,30.4,25.9,30.59,ENE,75,0.0,2.0,83,0.00,,SKC,0.00,VWS V14.01,2013-01-27 14:02:00,
2013-01-27 09:08:00,30.9,26.4,30.58,East,96,0.0,2.0,83,0.00,,SKC,0.00,VWS V14.01,2013-01-27 14:08:00,
2013-01-27 09:18:00,31.5,26.4,30.58,East,88,0.0,0.0,81,0.00,,SKC,0.00,VWS V14.01,2013-01-27 14:18:00,
2013-01-27 09:24:00,31.5,26.0,30.58,ESE,105,0.0,3.0,80,0.00,,SKC,0.00,VWS V14.01,2013-01-27 14:24:00,
2013-01-27 09:29:00,31.7,26.2,30.58,East,87,0.0,3.0,80,0.00,,SKC,0.00,VWS V14.01,2013-01-27 14:29:00,
2013-01-27 09:30:00,31.7,26.2,30.58,East,87,0.0,3.0,80,0.00,,SKC,0.00,VWS V14.01,2013-01-27 14:30:00,
2013-01-27 09:35:00,32.3,26.5,30.59,East,81,0.0,0.0,79,0.00,,SKC,0.00,VWS V14.01,2013-01-27 14:35:00,
2013-01-27 09:40:00,32.6,26.5,30.58,ESE,103,3.0,4.0,78,0.00,,SKC,0.00,VWS V14.01,2013-01-27 14:40:00,
2013-01-27 09:46:00,32.5,26.4,30.58,SE,135,0.0,4.0,78,0.00,,SKC,0.00,VWS V14.01,2013-01-27 14:46:00,
2013-01-27 09:51:00,33.3,27.2,30.59,ENE,77,0.0,4.0,78,0.00,,SKC,0.00,VWS V14.01,2013-01-27 14:51:00,
2013-01-27 09:57:00,33.2,26.5,30.59,East,79,1.0,4.0,76,0.00,,SKC,0.00,VWS V14.01,2013-01-27 14:57:00,
2013-01-27 10:00:00,33.2,26.8,30.59,East,86,2.0,4.0,77,0.00,,SKC,0.00,VWS V14.01,2013-01-27 15:00:00,
2013-01-27 10:02:00,33.3,26.9,30.59,SSE,148,2.0,2.0,77,0.00,,SKC,0.00,VWS V14.01,2013-01-27 15:02:00,
2013-01-27 10:08:00,33.5,26.8,30.60,East,82,0.0,3.0,76,0.00,,SKC,0.00,VWS V14.01,2013-01-27 15:08:00,
2013-01-27 10:13:00,33.7,27.0,30.60,SSE,149,1.0,3.0,76,0.00,,SKC,0.00,VWS V14.01,2013-01-27 15:13:00,
2013-01-27 10:18:00,34.0,26.9,30.60,East,98,0.0,3.0,75,0.00,,SKC,0.00,VWS V14.01,2013-01-27 15:18:00,
2013-01-27 10:24:00,34.0,26.9,30.60,ENE,71,1.0,4.0,75,0.00,,SKC,0.00,VWS V14.01,2013-01-27 15:24:00,
2013-01-27 10:29:00,34.0,26.9,30.60,East,101,0.0,4.0,75,0.00,,SKC,0.00,VWS V14.01,2013-01-27 15:29:00,
2013-01-27 10:30:00,34.0,26.9,30.60,East,101,0.0,4.0,75,0.00,,SKC,0.00,VWS V14.01,2013-01-27 15:30:00,
2013-01-27 10:35:00,34.0,27.2,30.60,East,84,0.0,3.0,76,0.00,,SKC,0.00,VWS V14.01,2013-01-27 15:35:00,
2013-01-27 10:40:00,33.9,26.8,30.60,East,84,0.0,3.0,75,0.00,,SKC,0.00,VWS V14.01,2013-01-27 15:40:00,
2013-01-27 10:46:00,34.2,26.8,30.60,ESE,103,1.0,3.0,74,0.00,,SKC,0.00,VWS V14.01,2013-01-27 15:46:00,
2013-01-27 10:51:00,34.1,27.0,30.60,East,96,0.0,3.0,75,0.00,,SKC,0.00,VWS V14.01,2013-01-27 15:51:00,
2013-01-27 10:56:00,34.6,27.8,30.61,East,94,0.0,3.0,76,0.00,,SKC,0.00,VWS V14.01,2013-01-27 15:56:00,
2013-01-27 11:00:00,34.9,27.8,30.61,SE,125,0.0,3.0,75,0.00,,SKC,0.00,VWS V14.01,2013-01-27 16:00:00,
2013-01-27 11:02:00,35.2,28.1,30.61,SE,125,0.0,0.0,75,0.00,,SKC,0.00,VWS V14.01,2013-01-27 16:02:00,
2013-01-27 11:07:00,35.8,28.3,30.61,SE,125,0.0,0.0,74,0.00,,SKC,0.00,VWS V14.01,2013-01-27 16:07:00,
2013-01-27 11:13:00,36.3,28.1,30.61,East,89,0.0,0.0,72,0.00,,SKC,0.00,VWS V14.01,2013-01-27 16:13:00,
2013-01-27 11:18:00,36.3,28.1,30.60,ESE,115,0.0,1.0,72,0.00,,SKC,0.00,VWS V14.01,2013-01-27 16:18:00,
2013-01-27 11:24:00,36.5,28.0,30.60,SSW,208,0.0,1.0,71,0.00,,SKC,0.00,VWS V14.01,2013-01-27 16:24:00,
2013-01-27 11:29:00,36.7,27.9,30.61,SE,124,0.0,2.0,70,0.00,,SKC,0.00,VWS V14.01,2013-01-27 16:29:00,
2013-01-27 11:30:00,36.7,28.2,30.61,ESE,110,0.0,2.0,71,0.00,,SKC,0.00,VWS V14.01,2013-01-27 16:30:00,
2013-01-27 11:34:00,37.3,28.8,30.61,East,84,0.0,0.0,71,0.00,,SKC,0.00,VWS V14.01,2013-01-27 16:34:00,
2013-01-27 11:40:00,38.1,28.1,30.61,SE,140,0.0,3.0,67,0.00,,SKC,0.00,VWS V14.01,2013-01-27 16:40:00,
2013-01-27 11:45:00,38.5,29.2,30.61,SE,140,0.0,3.0,69,0.00,,SKC,0.00,VWS V14.01,2013-01-27 16:45:00,
2013-01-27 11:51:00,39.0,29.4,30.60,ESE,122,0.0,3.0,68,0.00,,SKC,0.00,VWS V14.01,2013-01-27 16:51:00,
2013-01-27 11:56:00,39.5,29.1,30.60,ENE,70,1.0,3.0,66,0.00,,SKC,0.00,VWS V14.01,2013-01-27 16:56:00,
2013-01-27 12:00:00,39.2,28.1,30.60,East,98,1.0,3.0,64,0.00,,SKC,0.00,VWS V14.01,2013-01-27 17:00:00,
2013-01-27 12:01:00,39.0,28.2,30.60,ESE,109,0.0,1.0,65,0.00,,SKC,0.00,VWS V14.01,2013-01-27 17:01:00,
2013-01-27 12:07:00,38.9,28.9,30.59,ESE,116,1.0,1.0,67,0.00,,SKC,0.00,VWS V14.01,2013-01-27 17:07:00,
2013-01-27 12:12:00,38.9,28.5,30.59,East,88,0.0,3.0,66,0.00,,SKC,0.00,VWS V14.01,2013-01-27 17:12:00,
2013-01-27 12:18:00,39.6,29.2,30.58,East,98,0.0,3.0,66,0.00,,SKC,0.00,VWS V14.01,2013-01-27 17:18:00,
2013-01-27 12:23:00,40.4,29.6,30.57,East,92,0.0,3.0,65,0.00,,SKC,0.00,VWS V14.01,2013-01-27 17:23:00,
2013-01-27 12:29:00,40.1,28.5,30.58,ESE,108,1.0,5.0,63,0.00,,SKC,0.00,VWS V14.01,2013-01-27 17:29:00,
2013-01-27 12:30:00,40.0,28.4,30.57,SSE,167,0.0,5.0,63,0.00,,SKC,0.00,VWS V14.01,2013-01-27 17:30:00,
2013-01-27 12:34:00,40.2,29.4,30.57,ENE,77,0.0,3.0,65,0.00,,SKC,0.00,VWS V14.01,2013-01-27 17:34:00,
2013-01-27 12:39:00,41.2,30.0,30.56,ENE,71,0.0,3.0,64,0.00,,SKC,0.00,VWS V14.01,2013-01-27 17:39:00,
2013-01-27 12:45:00,42.5,31.2,30.57,ESE,108,1.0,3.0,64,0.00,,SKC,0.00,VWS V14.01,2013-01-27 17:45:00,
2013-01-27 12:50:00,43.0,30.1,30.57,South,182,0.0,3.0,60,0.00,,SKC,0.00,VWS V14.01,2013-01-27 17:50:00,
2013-01-27 12:56:00,43.0,29.7,30.56,ENE,76,0.0,3.0,59,0.00,,SKC,0.00,VWS V14.01,2013-01-27 17:56:00,
2013-01-27 13:00:00,42.9,29.6,30.55,SSE,158,0.0,3.0,59,0.00,,SKC,0.00,VWS V14.01,2013-01-27 18:00:00,
2013-01-27 13:01:00,43.0,29.2,30.55,WNW,293,0.0,1.0,58,0.00,,SKC,0.00,VWS V14.01,2013-01-27 18:01:00,
2013-01-27 13:07:00,43.4,30.5,30.55,ESE,111,0.0,2.0,60,0.00,,SKC,0.00,VWS V14.01,2013-01-27 18:07:00,
2013-01-27 13:12:00,43.4,30.0,30.55,ENE,77,2.0,3.0,59,0.00,,SKC,0.00,VWS V14.01,2013-01-27 18:12:00,
2013-01-27 13:17:00,44.1,31.1,30.55,East,87,0.0,3.0,60,0.00,,SKC,0.00,VWS V14.01,2013-01-27 18:17:00,
2013-01-27 13:23:00,44.7,29.1,30.55,ESE,102,2.0,4.0,54,0.00,,SKC,0.00,VWS V14.01,2013-01-27 18:23:00,
2013-01-27 13:28:00,44.1,29.9,30.54,East,82,0.0,4.0,57,0.00,,SKC,0.00,VWS V14.01,2013-01-27 18:28:00,
2013-01-27 13:30:00,44.2,29.5,30.54,ESE,122,1.0,4.0,56,0.00,,SKC,0.00,VWS V14.01,2013-01-27 18:30:00,
2013-01-27 13:34:00,44.3,30.0,30.54,ESE,105,1.0,2.0,57,0.00,,SKC,0.00,VWS V14.01,2013-01-27 18:34:00,
2013-01-27 13:39:00,43.5,29.3,30.54,SSE,153,0.0,2.0,57,0.00,,SKC,0.00,VWS V14.01,2013-01-27 18:39:00,
2013-01-27 13:44:00,42.8,29.1,30.54,East,84,1.0,2.0,58,0.00,,SKC,0.00,VWS V14.01,2013-01-27 18:44:00,
2013-01-27 13:50:00,42.7,29.0,30.54,East,97,0.0,3.0,58,0.00,,SKC,0.00,VWS V14.01,2013-01-27 18:50:00,
2013-01-27 13:55:00,42.9,29.6,30.54,ENE,78,0.0,4.0,59,0.00,,SKC,0.00,VWS V14.01,2013-01-27 18:55:00,
2013-01-27 14:00:00,43.7,29.9,30.54,East,92,0.0,4.0,58,0.00,,SKC,0.00,VWS V14.01,2013-01-27 19:00:00,
2013-01-27 14:01:00,43.9,30.1,30.54,East,96,0.0,0.0,58,0.00,,SKC,0.00,VWS V14.01,2013-01-27 19:01:00,
2013-01-27 14:06:00,45.3,31.0,30.54,NE,34,0.0,1.0,57,0.00,,SKC,0.00,VWS V14.01,2013-01-27 19:06:00,
2013-01-27 14:12:00,46.9,30.7,30.53,ESE,105,1.0,1.0,53,0.00,,SKC,0.00,VWS V14.01,2013-01-27 19:12:00,
2013-01-27 14:17:00,46.1,29.9,30.53,SSE,158,0.0,3.0,53,0.00,,SKC,0.00,VWS V14.01,2013-01-27 19:17:00,
2013-01-27 14:22:00,45.9,30.2,30.53,East,79,0.0,3.0,54,0.00,,SKC,0.00,VWS V14.01,2013-01-27 19:22:00,
2013-01-27 14:28:00,45.8,30.6,30.53,WSW,253,0.0,3.0,55,0.00,,SKC,0.00,VWS V14.01,2013-01-27 19:28:00,
2013-01-27 14:30:00,46.0,29.8,30.52,SSW,197,0.0,3.0,53,0.00,,SKC,0.00,VWS V14.01,2013-01-27 19:30:00,
2013-01-27 14:33:00,46.1,29.9,30.52,ESE,105,2.0,2.0,53,0.00,,SKC,0.00,VWS V14.01,2013-01-27 19:33:00,
2013-01-27 14:39:00,45.2,29.6,30.52,ESE,118,0.0,2.0,54,0.00,,SKC,0.00,VWS V14.01,2013-01-27 19:39:00,
2013-01-27 14:44:00,45.3,30.1,30.52,East,94,1.0,2.0,55,0.00,,SKC,0.00,VWS V14.01,2013-01-27 19:44:00,
2013-01-27 14:50:00,44.9,29.7,30.53,East,87,0.0,2.0,55,0.00,,SKC,0.00,VWS V14.01,2013-01-27 19:50:00,
2013-01-27 14:55:00,44.2,29.1,30.53,East,99,0.0,3.0,55,0.00,,SKC,0.00,VWS V14.01,2013-01-27 19:55:00,
2013-01-27 15:00:00,43.7,29.0,30.53,West,274,1.0,2.0,56,0.00,,SKC,0.00,VWS V14.01,2013-01-27 20:00:00,
2013-01-27 15:06:00,43.9,29.2,30.52,East,97,3.0,3.0,56,0.00,,SKC,0.00,VWS V14.01,2013-01-27 20:06:00,
2013-01-27 15:11:00,43.5,29.3,30.53,ESE,106,0.0,3.0,57,0.00,,SKC,0.00,VWS V14.01,2013-01-27 20:11:00,
2013-01-27 15:17:00,43.4,29.2,30.52,East,95,1.0,3.0,57,0.00,,SKC,0.00,VWS V14.01,2013-01-27 20:17:00,
2013-01-27 15:22:00,43.6,29.8,30.52,SSE,148,1.0,3.0,58,0.00,,SKC,0.00,VWS V14.01,2013-01-27 20:22:00,
2013-01-27 15:27:00,43.8,29.6,30.52,East,86,0.0,3.0,57,0.00,,SKC,0.00,VWS V14.01,2013-01-27 20:27:00,
2013-01-27 15:30:00,44.1,30.3,30.52,SSE,154,0.0,3.0,58,0.00,,SKC,0.00,VWS V14.01,2013-01-27 20:30:00,
2013-01-27 15:33:00,44.5,29.8,30.52,East,93,1.0,1.0,56,0.00,,SKC,0.00,VWS V14.01,2013-01-27 20:33:00,
2013-01-27 15:38:00,44.8,29.2,30.52,ESE,103,0.0,2.0,54,0.00,,SKC,0.00,VWS V14.01,2013-01-27 20:38:00,
2013-01-27 15:44:00,44.7,29.5,30.51,WSW,246,0.0,2.0,55,0.00,,SKC,0.00,VWS V14.01,2013-01-27 20:44:00,
2013-01-27 15:49:00,44.6,29.5,30.52,East,94,1.0,2.0,55,0.00,,SKC,0.00,VWS V14.01,2013-01-27 20:49:00,
2013-01-27 15:55:00,43.9,29.7,30.52,ENE,72,1.0,4.0,57,0.00,,SKC,0.00,VWS V14.01,2013-01-27 20:55:00,
2013-01-27 16:00:00,43.6,29.0,30.52,East,96,1.0,3.0,56,0.00,,SKC,0.00,VWS V14.01,2013-01-27 21:00:00,
2013-01-27 16:05:00,43.7,29.9,30.52,East,95,0.0,3.0,58,0.00,,SKC,0.00,VWS V14.01,2013-01-27 21:05:00,
2013-01-27 16:11:00,44.0,29.3,30.52,East,92,4.0,4.0,56,0.00,,SKC,0.00,VWS V14.01,2013-01-27 21:11:00,
2013-01-27 16:16:00,43.7,29.0,30.53,ESE,103,0.0,4.0,56,0.00,,SKC,0.00,VWS V14.01,2013-01-27 21:16:00,
2013-01-27 16:22:00,43.6,29.8,30.53,ESE,103,0.0,4.0,58,0.00,,SKC,0.00,VWS V14.01,2013-01-27 21:22:00,
2013-01-27 16:27:00,43.7,29.5,30.53,ESE,111,0.0,4.0,57,0.00,,SKC,0.00,VWS V14.01,2013-01-27 21:27:00,
2013-01-27 16:30:00,43.7,29.9,30.52,East,94,1.0,4.0,58,0.00,,SKC,0.00,VWS V14.01,2013-01-27 21:30:00,
2013-01-27 16:33:00,43.6,29.4,30.52,East,94,0.0,1.0,57,0.00,,SKC,0.00,VWS V14.01,2013-01-27 21:33:00,
2013-01-27 16:38:00,43.7,29.5,30.52,ESE,104,0.0,1.0,57,0.00,,SKC,0.00,VWS V14.01,2013-01-27 21:38:00,
2013-01-27 16:43:00,43.5,29.3,30.53,SE,142,0.0,1.0,57,0.00,,SKC,0.00,VWS V14.01,2013-01-27 21:43:00,
2013-01-27 16:49:00,43.4,29.6,30.53,East,100,1.0,2.0,58,0.00,,SKC,0.00,VWS V14.01,2013-01-27 21:49:00,
2013-01-27 16:54:00,43.0,29.2,30.53,East,100,0.0,2.0,58,0.00,,SKC,0.00,VWS V14.01,2013-01-27 21:54:00,
2013-01-27 16:59:00,42.8,29.1,30.53,East,98,0.0,2.0,58,0.00,,SKC,0.00,VWS V14.01,2013-01-27 21:59:00,
2013-01-27 17:00:00,42.8,29.1,30.53,East,98,0.0,2.0,58,0.00,,SKC,0.00,VWS V14.01,2013-01-27 22:00:00,
2013-01-27 17:05:00,42.6,29.7,30.53,East,96,0.0,0.0,60,0.00,,SKC,0.00,VWS V14.01,2013-01-27 22:05:00,
2013-01-27 17:10:00,42.5,29.2,30.53,East,89,0.0,0.0,59,0.00,,SKC,0.00,VWS V14.01,2013-01-27 22:10:00,
2013-01-27 17:16:00,42.3,29.4,30.54,East,92,0.0,1.0,60,0.00,,SKC,0.00,VWS V14.01,2013-01-27 22:16:00,
2013-01-27 17:21:00,42.3,29.4,30.54,East,91,0.0,1.0,60,0.00,,SKC,0.00,VWS V14.01,2013-01-27 22:21:00,
2013-01-27 17:27:00,42.1,29.2,30.54,East,92,0.0,1.0,60,0.00,,SKC,0.00,VWS V14.01,2013-01-27 22:27:00,
2013-01-27 17:30:00,42.1,29.6,30.54,East,92,0.0,1.0,61,0.00,,SKC,0.00,VWS V14.01,2013-01-27 22:30:00,
2013-01-27 17:32:00,42.1,29.2,30.54,East,92,0.0,0.0,60,0.00,,SKC,0.00,VWS V14.01,2013-01-27 22:32:00,
2013-01-27 17:38:00,42.1,29.6,30.54,East,92,0.0,0.0,61,0.00,,SKC,0.00,VWS V14.01,2013-01-27 22:38:00,
2013-01-27 17:43:00,42.0,29.9,30.54,East,92,0.0,0.0,62,0.00,,SKC,0.00,VWS V14.01,2013-01-27 22:43:00,
2013-01-27 17:48:00,41.9,29.5,30.53,East,92,0.0,0.0,61,0.00,,SKC,0.00,VWS V14.01,2013-01-27 22:48:00,
2013-01-27 17:53:00,41.7,29.3,30.54,East,92,0.0,1.0,61,0.00,,SKC,0.00,VWS V14.01,2013-01-27 22:53:00,
2013-01-27 17:59:00,41.6,29.2,30.54,East,92,0.0,1.0,61,0.00,,SKC,0.00,VWS V14.01,2013-01-27 22:59:00,
2013-01-27 18:00:00,41.6,29.2,30.54,East,92,0.0,1.0,61,0.00,,SKC,0.00,VWS V14.01,2013-01-27 23:00:00,
2013-01-27 18:04:00,41.5,29.5,30.54,East,92,0.0,0.0,62,0.00,,SKC,0.00,VWS V14.01,2013-01-27 23:04:00,
2013-01-27 18:10:00,41.4,29.4,30.54,East,92,0.0,0.0,62,0.00,,SKC,0.00,VWS V14.01,2013-01-27 23:10:00,
2013-01-27 18:15:00,41.2,29.2,30.54,East,92,0.0,0.0,62,0.00,,SKC,0.00,VWS V14.01,2013-01-27 23:15:00,
2013-01-27 18:21:00,40.9,29.3,30.54,East,92,0.0,0.0,63,0.00,,SKC,0.00,VWS V14.01,2013-01-27 23:21:00,
2013-01-27 18:26:00,40.7,29.1,30.54,East,92,0.0,0.0,63,0.00,,SKC,0.00,VWS V14.01,2013-01-27 23:26:00,
2013-01-27 18:30:00,40.5,28.9,30.54,East,92,0.0,0.0,63,0.00,,SKC,0.00,VWS V14.01,2013-01-27 23:30:00,
2013-01-27 18:33:00,40.3,29.1,30.54,East,92,0.0,0.0,64,0.00,,SKC,0.00,VWS V14.01,2013-01-27 23:33:00,
2013-01-27 18:38:00,40.1,28.9,30.54,East,91,0.0,0.0,64,0.00,,SKC,0.00,VWS V14.01,2013-01-27 23:38:00,
2013-01-27 18:44:00,39.9,28.7,30.54,East,92,0.0,0.0,64,0.00,,SKC,0.00,VWS V14.01,2013-01-27 23:44:00,
2013-01-27 18:49:00,39.8,29.0,30.54,East,92,0.0,0.0,65,0.00,,SKC,0.00,VWS V14.01,2013-01-27 23:49:00,
2013-01-27 18:54:00,39.7,28.9,30.55,East,91,0.0,0.0,65,0.00,,SKC,0.00,VWS V14.01,2013-01-27 23:54:00,
2013-01-27 19:00:00,39.6,29.2,30.54,East,92,0.0,0.0,66,0.00,,SKC,0.00,VWS V14.01,2013-01-28 00:00:00,
2013-01-27 19:05:00,39.4,29.0,30.54,East,91,0.0,0.0,66,0.00,,SKC,0.00,VWS V14.01,2013-01-28 00:05:00,
2013-01-27 19:11:00,39.3,28.9,30.54,East,92,0.0,0.0,66,0.00,,SKC,0.00,VWS V14.01,2013-01-28 00:11:00,
2013-01-27 19:16:00,39.1,28.7,30.54,East,92,0.0,0.0,66,0.00,,SKC,0.00,VWS V14.01,2013-01-28 00:16:00,
2013-01-27 19:22:00,38.9,28.5,30.54,East,92,0.0,0.0,66,0.00,,SKC,0.00,VWS V14.01,2013-01-28 00:22:00,
2013-01-27 19:27:00,38.7,29.4,30.55,East,92,0.0,0.0,69,0.00,,SKC,0.00,VWS V14.01,2013-01-28 00:27:00,
2013-01-27 19:30:00,38.7,30.1,30.55,East,92,0.0,0.0,71,0.00,,SKC,0.00,VWS V14.01,2013-01-28 00:30:00,
2013-01-27 19:32:00,38.5,29.9,30.55,East,92,0.0,0.0,71,0.00,,SKC,0.00,VWS V14.01,2013-01-28 00:32:00,
2013-01-27 19:38:00,38.3,29.0,30.55,East,92,0.0,0.0,69,0.00,,SKC,0.00,VWS V14.01,2013-01-28 00:38:00,
2013-01-27 19:43:00,38.1,28.8,30.55,East,91,0.0,0.0,69,0.00,,SKC,0.00,VWS V14.01,2013-01-28 00:43:00,
2013-01-27 19:49:00,38.0,29.5,30.55,East,91,0.0,0.0,71,0.00,,SKC,0.00,VWS V14.01,2013-01-28 00:49:00,
2013-01-27 19:54:00,38.1,30.2,30.54,East,92,0.0,0.0,73,0.00,,SKC,0.00,VWS V14.01,2013-01-28 00:54:00,
2013-01-27 20:00:00,38.2,30.0,30.55,East,92,0.0,0.0,72,0.00,,SKC,0.00,VWS V14.01,2013-01-28 01:00:00,
2013-01-27 20:05:00,38.3,29.7,30.55,East,92,0.0,0.0,71,0.00,,SKC,0.00,VWS V14.01,2013-01-28 01:05:00,
2013-01-27 20:11:00,38.3,29.7,30.54,East,92,0.0,0.0,71,0.00,,SKC,0.00,VWS V14.01,2013-01-28 01:11:00,
2013-01-27 20:16:00,38.5,29.6,30.54,East,92,0.0,0.0,70,0.00,,SKC,0.00,VWS V14.01,2013-01-28 01:16:00,
2013-01-27 20:22:00,38.5,29.6,30.54,East,92,0.0,0.0,70,0.00,,SKC,0.00,VWS V14.01,2013-01-28 01:22:00,
2013-01-27 20:27:00,38.5,30.3,30.55,East,92,0.0,0.0,72,0.00,,SKC,0.00,VWS V14.01,2013-01-28 01:27:00,
2013-01-27 20:30:00,38.5,30.3,30.55,East,92,0.0,0.0,72,0.00,,SKC,0.00,VWS V14.01,2013-01-28 01:30:00,
2013-01-27 20:32:00,38.5,30.3,30.55,East,92,0.0,0.0,72,0.00,,SKC,0.00,VWS V14.01,2013-01-28 01:32:00,
2013-01-27 20:38:00,38.5,30.3,30.55,East,92,0.0,0.0,72,0.00,,SKC,0.00,VWS V14.01,2013-01-28 01:38:00,
2013-01-27 20:43:00,38.5,29.9,30.55,East,92,0.0,0.0,71,0.00,,SKC,0.00,VWS V14.01,2013-01-28 01:43:00,
2013-01-27 20:49:00,38.8,29.9,30.55,East,92,0.0,0.0,70,0.00,,SKC,0.00,VWS V14.01,2013-01-28 01:49:00,
2013-01-27 20:55:00,39.1,30.2,30.54,East,91,0.0,0.0,70,0.00,,SKC,0.00,VWS V14.01,2013-01-28 01:55:00,
2013-01-27 21:00:00,39.2,29.9,30.54,East,91,0.0,0.0,69,0.00,,SKC,0.00,VWS V14.01,2013-01-28 02:00:00,
2013-01-27 21:06:00,39.4,29.7,30.54,East,92,0.0,0.0,68,0.00,,SKC,0.00,VWS V14.01,2013-01-28 02:06:00,
2013-01-27 21:11:00,39.5,30.2,30.54,East,91,0.0,0.0,69,0.00,,SKC,0.00,VWS V14.01,2013-01-28 02:11:00,
2013-01-27 21:17:00,39.6,30.3,30.55,East,92,0.0,0.0,69,0.00,,SKC,0.00,VWS V14.01,2013-01-28 02:17:00,
2013-01-27 21:23:00,39.7,30.7,30.55,East,92,0.0,0.0,70,0.00,,SKC,0.00,VWS V14.01,2013-01-28 02:23:00,
2013-01-27 21:28:00,39.8,30.5,30.55,East,92,0.0,0.0,69,0.00,,SKC,0.00,VWS V14.01,2013-01-28 02:28:00,
2013-01-27 21:30:00,39.8,30.1,30.55,East,91,0.0,0.0,68,0.00,,SKC,0.00,VWS V14.01,2013-01-28 02:30:00,
2013-01-27 21:34:00,39.8,30.1,30.55,East,92,0.0,0.0,68,0.00,,SKC,0.00,VWS V14.01,2013-01-28 02:34:00,
2013-01-27 21:39:00,39.9,29.9,30.55,East,92,0.0,0.0,67,0.00,,SKC,0.00,VWS V14.01,2013-01-28 02:39:00,
2013-01-27 21:45:00,40.0,29.9,30.55,East,92,0.0,0.0,67,0.00,,SKC,0.00,VWS V14.01,2013-01-28 02:45:00,
2013-01-27 21:51:00,40.1,30.0,30.55,East,92,0.0,0.0,67,0.00,,SKC,0.00,VWS V14.01,2013-01-28 02:51:00,
2013-01-27 21:57:00,40.2,30.1,30.55,East,92,0.0,0.0,67,0.00,,SKC,0.00,VWS V14.01,2013-01-28 02:57:00,
2013-01-27 22:00:00,40.2,30.1,30.55,East,91,0.0,0.0,67,0.00,,SKC,0.00,VWS V14.01,2013-01-28 03:00:00,
2013-01-27 22:03:00,40.3,29.9,30.55,East,92,0.0,0.0,66,0.00,,SKC,0.00,VWS V14.01,2013-01-28 03:03:00,
2013-01-27 22:08:00,40.3,29.9,30.55,East,98,0.0,1.0,66,0.00,,SKC,0.00,VWS V14.01,2013-01-28 03:08:00,
2013-01-27 22:14:00,40.4,29.6,30.55,East,99,0.0,1.0,65,0.00,,SKC,0.00,VWS V14.01,2013-01-28 03:14:00,
2013-01-27 22:19:00,40.5,29.7,30.55,East,97,0.0,1.0,65,0.00,,SKC,0.00,VWS V14.01,2013-01-28 03:19:00,
2013-01-27 22:25:00,40.5,30.0,30.54,East,98,0.0,1.0,66,0.00,,SKC,0.00,VWS V14.01,2013-01-28 03:25:00,
2013-01-27 22:30:00,40.5,29.7,30.54,East,98,0.0,0.0,65,0.00,,SKC,0.00,VWS V14.01,2013-01-28 03:30:00,
2013-01-27 22:36:00,40.4,29.6,30.55,East,98,0.0,0.0,65,0.00,,SKC,0.00,VWS V14.01,2013-01-28 03:36:00,
2013-01-27 22:41:00,40.4,29.6,30.54,East,98,0.0,0.0,65,0.00,,SKC,0.00,VWS V14.01,2013-01-28 03:41:00,
2013-01-27 22:46:00,40.4,29.6,30.55,East,98,0.0,0.0,65,0.00,,SKC,0.00,VWS V14.01,2013-01-28 03:46:00,
2013-01-27 22:52:00,40.4,29.2,30.54,East,98,0.0,0.0,64,0.00,,SKC,0.00,VWS V14.01,2013-01-28 03:52:00,
2013-01-27 22:57:00,40.4,29.2,30.54,East,97,0.0,0.0,64,0.00,,SKC,0.00,VWS V14.01,2013-01-28 03:57:00,
2013-01-27 23:00:00,40.4,29.2,30.54,East,96,0.0,0.0,64,0.00,,SKC,0.00,VWS V14.01,2013-01-28 04:00:00,
2013-01-27 23:03:00,40.4,29.2,30.54,East,96,0.0,0.0,64,0.00,,SKC,0.00,VWS V14.01,2013-01-28 04:03:00,
2013-01-27 23:08:00,40.4,29.2,30.54,East,98,0.0,0.0,64,0.00,,SKC,0.00,VWS V14.01,2013-01-28 04:08:00,
2013-01-27 23:14:00,40.4,29.2,30.54,East,96,0.0,1.0,64,0.00,,SKC,0.00,VWS V14.01,2013-01-28 04:14:00,
2013-01-27 23:19:00,40.4,29.2,30.54,East,98,0.0,1.0,64,0.00,,SKC,0.00,VWS V14.01,2013-01-28 04:19:00,
2013-01-27 23:24:00,40.4,28.8,30.53,ESE,122,0.0,1.0,63,0.00,,SKC,0.00,VWS V14.01,2013-01-28 04:24:00,
2013-01-27 23:30:00,40.4,29.2,30.53,ESE,123,0.0,0.0,64,0.00,,SKC,0.00,VWS V14.01,2013-01-28 04:30:00,
2013-01-27 23:35:00,40.3,29.1,30.52,ESE,122,0.0,0.0,64,0.00,,SKC,0.00,VWS V14.01,2013-01-28 04:35:00,
2013-01-27 23:41:00,40.3,29.1,30.51,ESE,113,1.0,1.0,64,0.00,,SKC,0.00,VWS V14.01,2013-01-28 04:41:00,
2013-01-27 23:46:00,40.3,28.7,30.51,ESE,109,0.0,1.0,63,0.00,,SKC,0.00,VWS V14.01,2013-01-28 04:46:00,
2013-01-27 23:51:00,40.2,28.2,30.51,ESE,108,0.0,1.0,62,0.00,,SKC,0.00,VWS V14.01,2013-01-28 04:51:00,
2013-01-27 23:57:00,40.1,28.5,30.52,ESE,108,0.0,1.0,63,0.00,,SKC,0.00,VWS V14.01,2013-01-28 04:57:00,